Regional Weather Roundup
Issued by NWS

Home | Current Version | Previous Version | Text Only | Print | Product List | Glossary On
Versions: 1 2 3 4 5 6 7 8 9 10 11 12 13 14 15 16 17 18 19 20 21 22 23 24 25 26 27 28 29 30 31 32 33 34 35 36 37 38 39 40 41 42 43 44 45 46 47 48 49 50
000
ASUS45 KBOU 150610
RWRCO

WEATHER ROUNDUP FOR COLORADO
NATIONAL WEATHER SERVICE DENVER/BOULDER CO
1100 PM MST THU NOV 14 2019

NOTE: "FAIR" INDICATES FEW OR NO CLOUDS BELOW 12000 FEET WITH NO
SIGNIFICANT WEATHER AND/OR OBSTRUCTIONS TO VISIBILITY.

COZ001>005-013-030-031-150700-
...NORTHWEST COLORADO...

CITY           SKY/WX    TMP DP  RH WIND       PRES   REMARKS
CRAIG          FAIR      28  22  78 CALM      30.29F
HAYDEN         FAIR      33  18  53 E12       30.31S WCI  24
MEEKER         FAIR      26  17  68 CALM      30.30S
RANGELY        FAIR      29  22  76 CALM      30.29R
RABBIT EARS PA FAIR      32  10  40 W8        30.39S WCI  25
STEAMBOAT SPGS FAIR      28  17  63 CALM      30.31S
WALDEN         NOT AVBL
$$

COZ006>008-011-150700-
...WEST CENTRAL VALLEYS...

CITY           SKY/WX    TMP DP  RH WIND       PRES   REMARKS
GRAND JUNCTION FAIR      39  15  37 E6        30.28S
MONTROSE       FAIR      32  18  56 SE6       30.34R WCI  26
EAGLE          FAIR      29  18  63 CALM      30.36R
RIFLE          FAIR      31  16  54 CALM      30.32R
DELTA          FAIR      37  18  44 E5        30.32R
NUCLA          FAIR      37  12  35 E7        30.35S
$$

COZ017>023-064>068-150700-
...SOUTHWEST COLORADO...

CITY           SKY/WX    TMP DP  RH WIND       PRES   REMARKS
DURANGO        FAIR      26   9  48 CALM      30.36S
CORTEZ         FAIR      29  11  47 CALM      30.34R
PAGOSA SPRINGS FAIR      30  13  48 CALM      30.40S
TELLURIDE      FAIR      34  16  47 SE6       30.44S WCI  29
WOLF CREEK PAS FAIR      30   9  40 SW12      30.56S WCI  21
$$

COZ009-010-012-014-032>034-037-058>063-150700-
...CENTRAL COLORADO...

CITY           SKY/WX    TMP DP  RH WIND       PRES   REMARKS
ASPEN          FAIR      31  13  47 SW8       30.34S WCI  23
BUENA VISTA    FAIR      26  18  71 CALM      30.34S
COPPER MTN     FAIR      34  10  37 MISG      30.47R
BERTHOUD PASS  FAIR      27  10  50 NW26G36   30.42R WCI  11
DAKOTA HILL    FAIR      32   1  27 NW24G39   30.32R WCI  19
COTTONWOOD PAS FAIR      41   3  20 NW9G20    30.38S
GUNNISON       FAIR      22  16  78 CALM      30.41R
GRANBY         FAIR      24  15  70 CALM      30.36S
KREMMLING      FAIR      21  18  86 CALM      30.36S
LEADVILLE      FAIR      26   9  48 NE7       30.38S WCI  18
SALIDA         FAIR      37  19  49 N9        30.39S
SUNLIGHT       FAIR      32   7  34 SW10G18   30.47S WCI  24
WILKERSON PASS FAIR      32   5  32 W14G26    30.42R WCI  22
$$

COZ069>075-150700-
...SAN LUIS VALLEY/SANGRE DE CRISTO MOUNTAINS...

CITY           SKY/WX    TMP DP  RH WIND       PRES   REMARKS
ALAMOSA        FAIR      19   5  54 CALM      30.38R
DEL NORTE      FAIR      29  12  50 W3        30.40R
LA VETA PASS   FAIR      30  12  47 W20       30.36R WCI  18
SAGUACHE       FAIR      32  14  47 NW10      30.39S WCI  24
$$

COZ035-036-038>040-150700-
...NORTHERN COLORADO FRONT RANGE...

CITY           SKY/WX    TMP DP  RH WIND       PRES   REMARKS
DENVER INTL AP FAIR      37  28  70 SW9       30.19S
AURORA         PTCLDY    35  28  76 S8        30.20S WCI  28
FRONT RANGE AP FAIR      38  29  71 SW9       30.20S
ERIE MUNI ARPT FAIR      28  26  89 CALM      30.24F
BOULDER MUN AP FAIR      37  27  65 CALM      30.18F
CENTENNIAL     MOCLDY    36  26  67 S7        30.19F
BROOMFIELD     FAIR      37  27  65 CALM      30.19F
FORT COLLINS   FAIR      33  27  78 N6        30.19F WCI  28
LONGMONT       FAIR      36  27  71 W5        30.20F
$$

COZ041-046-047-076>085-087-088-150700-
...PIKES PEAK/PALMER DIVIDE AND SOUTHERN FOOTHILLS...

CITY           SKY/WX    TMP DP  RH WIND       PRES   REMARKS
COLO. SPRINGS  FAIR      28  21  75 N8        30.26F WCI  20
A. F. ACADEMY  FAIR      24  22  91 N6        30.24F WCI  17
SCHRIEVER AFB  NOT AVBL
CHEYENNE MTN   FAIR      34  25  70 CALM      30.20F
ELLICOTT       NOT AVBL
FALCON         FAIR      28  22  79 N7        30.27F WCI  20
FORT CARSON    FAIR      30  25  79 NW9       30.24F WCI  22
LIMON          FAIR      20  18  92 CALM      30.24F
MONUMENT HILL  FAIR      32  27  80 S14       30.25S WCI  22
CANON CITY     FAIR      34  28  80 W7        30.23F WCI  28
WALSENBURG     NOT AVBL
TRINIDAD       FAIR      39  26  59 W12       30.27S
$$

COZ042>045-048>051-090-091-150700-
...NORTHEAST COLORADO...

CITY           SKY/WX    TMP DP  RH WIND       PRES   REMARKS
GREELEY ARPT   FAIR      27  25  92 NW5       30.19F WCI  22
AKRON          FAIR      36  29  75 S10       30.19F
BURLINGTON     FAIR      37  28  70 S16       30.24F
WRAY           FAIR      37  30  75 W8        30.24S
YUMA           FAIR      32  27  80 S9        30.22S WCI  24
STERLING       FAIR      30  27  86 W3        30.19F
HOLYOKE        FAIR      32  27  80 SW9       30.23S WCI  24
FORT MORGAN    FAIR      35  27  72 S3        30.20F
$$

COZ086-089-092>099-150700-
...SOUTHEAST COLORADO...

CITY           SKY/WX    TMP DP  RH WIND       PRES   REMARKS
PUEBLO         FAIR      30  24  78 W5        30.24F WCI  25
LA JUNTA       FAIR      37  25  61 SW13      30.25S
LAMAR          FAIR      35  26  69 SW3       30.24F
SPRINGFIELD      N/A     32  26  78 S13       30.28F WCI  22
$$



USA.gov is the U.S. government's official web portal to all federal, state and local government web resources and services.